Other Public Products
Issued by NWS Grand Forks, ND

Home | Current Version | Previous Version | Text Only | Print | Product List | Glossary Off
Versions: 1 2 3 4 5 6 7 8 9 10 11 12 13 14 15 16 17 18 19 20 21 22 23 24 25 26 27 28 29 30 31 32 33 34 35 36 37 38 39 40 41 42 43 44 45 46 47 48 49 50

000
FPUS83 KFGF 130931
OPUFGF
PRAIRIE TO PINES WEATHER ROUNDUP
NATIONAL WEATHER SERVICE EASTERN NORTH DAKOTA/GRAND FORKS ND
300 AM CST SAT FEB 13 2016

 **SATELLITE DATA USED TO AUGMENT SKY COVER AT AUTOMATED STATIONS**
 *****  WEATHER ACROSS EASTERN NORTH DAKOTA  *****

CITY           SKY/WX    TMP DP  RH WIND       PRES   REMARKS
GRAND FORKS    CLOUDY    -8 -14  74 S3        30.63F
GRAND FORKS AF CLOUDY   -10 -16  75 S2        30.61F
GRAND CITY NWS NOT AVBL
BUXTON           N/A     -9 -12  86 CALM        N/A
DEVILS LAKE    CLOUDY   -12 -16  82 S6        30.52F WCI -26
FARGO          CLOUDY    -8 -15  71 CALM      30.64F
WAHPETON ARPT  CLOUDY    -6 -13  71 CALM      30.64F
$$

 *****  WEATHER ACROSS CENTRAL AND WESTERN NORTH DAKOTA  *****

CITY           SKY/WX    TMP DP  RH WIND       PRES   REMARKS
JAMESTOWN      CLOUDY    -5 -12  72 SE8       30.52F WCI -20
BISMARCK       CLOUDY     8  -1  66 SE12      30.43F WCI  -7
MINOT          CLOUDY     7  -5  57 SE13      30.36F WCI  -9
MINOT AFB      CLOUDY     6  -3  67 SE17      30.36F WCI -13
GARRISON         N/A      6  -2  69 SE15      30.34F WCI -12
WILLISTON      LGT SNOW  13   8  81 SE10      30.21F WCI   0
DICKINSON      CLOUDY    11   6  81 SE20      30.18F WCI  -7
HETTINGER      CLOUDY    13   9  84 SE17G25   30.20F WCI  -4
$$

 *****  OTHER OBSERVATIONS NORTHEAST NORTH DAKOTA  *****

CITY           SKY/WX    TMP DP  RH WIND       PRES   REMARKS
WALHALLA       FAIR     -13 -18  77 S3        30.58F
LANGDON        FAIR     -18 -24  76 S7        30.49F WCI -35
CAVALIER       FAIR      -9 -13  84 S5        30.60F WCI -21
GRAFTON        FAIR     -11 -15  84 S7        30.63F WCI -26
CANDO          FAIR     -17 -22  76 SE8       30.52S WCI -34
FORT TOTTEN      N/A     -7 -14  72 S6        29.95S WCI -20
ROLLA          FAIR     -11 -17  77 S8        30.43F WCI -28
RUGBY          FAIR       0 -11  60 SE13      30.44F WCI -18
 ***** THE ABOVE OBSERVATIONS ARE NON NWS ARE NOT QUALITY
        CONTROLLED AND MAY MIS-REPORT RAIN FOR SNOW...
$$

 *****  OTHER OBSERVATIONS SOUTHEAST NORTH DAKOTA *****

CITY           SKY/WX    TMP DP  RH WIND       PRES   REMARKS
COOPERSTOWN    NOT AVBL
VALLEY CITY    FAIR     -11 -17  77 CALM      30.57F
OAKES          FAIR      -2  -9  71 SE8       30.57S WCI -17
GWINNER        FAIR      -6 -11  77 SE3       30.60R
SHEYENNE NWR     N/A    -15 -22  70 CALM      29.95S
BUFFALO          N/A    -14 -20  74 CALM        N/A
WYNDMERE         N/A     -9 -15  77 SW2         N/A
 ***** THE ABOVE OBSERVATIONS ARE NON NWS ARE NOT QUALITY
       CONTROLLED AND MAY MIS-REPORT RAIN FOR SNOW...
$$

  *****  WEATHER ACROSS NORTHERN MINNESOTA  *****

CITY           SKY/WX    TMP DP  RH WIND       PRES   REMARKS
FLAG ISLAND    CLOUDY   -18 -24  76 CALM      30.57S
WARROAD        CLOUDY   -26 -31  75 SW3       30.58F
ROSEAU         PTCLDY   -24 -29  76 S6        30.59F WCI -40
HALLOCK        CLOUDY   -15 -20  76 S7        30.61F WCI -31
THF RVR FALLS  CLOUDY   -15 N/A N/A CALM      30.59F
HALSTAD          N/A     -7 -11  83 E5          N/A  WCI -19
FOSSTON          N/A    -26 -33  68 CALM      30.58F
BAUDETTE       CLOUDY   -19 -25  73 W7        30.57R WCI -36
WASKISH        CLOUDY   -18 -24  76 CALM      30.58S
CROOKSTON      CLOUDY   -11 -17  77 SE3       30.64F
$$
  *****  WEATHER ACROSS CENTRAL AND WEST MINNESOTA  *****

CITY           SKY/WX    TMP DP  RH WIND       PRES   REMARKS
BEMIDJI        CLOUDY   -22 -27  76 CALM      30.56F
PARK RAPIDS    CLOUDY   -20 -26  74 W5        30.57S WCI -33
WADENA         CLOUDY   -17 -20  83 CALM      30.57F
DETROIT LAKES  CLOUDY   -13 -17  84 CALM      30.58F
MOORHEAD       CLOUDY    -8 -13  77 CALM      30.63F
FERGUS FALLS   CLOUDY    -9 -15  77 CALM      30.66S
ELBOW LAKE     FAIR      -7 -12  81 CALM      30.61F
MORRIS MN      CLOUDY    -8 -11  84 CALM      30.61S
STAPLES        CLOUDY   -15 -18  84 CALM      30.59F
WHEATON        CLOUDY    -8 -13  77 CALM      30.65F
$$
  *****  WEATHER ELSEWHERE ACROSS MINNESOTA  *****

CITY           SKY/WX    TMP DP  RH WIND       PRES   REMARKS
DULUTH         CLOUDY   -13 -21  67 NW9       30.52F WCI -31
INTRNTL FALLS  CLOUDY   -18 -24  74 W5        30.57R WCI -31
ELY            CLOUDY   -18 -24  76 W6        30.50S WCI -33
CLOQUET        CLOUDY   -13 -20  70 NW9       30.54S WCI -31
BRAINERD       PTCLDY   -13 -18  78 W3        30.60S
HIBBING        CLOUDY   -20 -25  77 NW7       30.54R WCI -37
ALEXANDRIA     CLOUDY   -10 -16  74 NW3       30.59S
SAINT CLOUD    PTCLDY    -9 -16  71 NW6       30.62F WCI -22
MINNEAPOLIS    PTCLDY    -4 -12  68 NW6       30.65R WCI -16
$$

  *****  WEATHER ACROSS SOUTH DAKOTA  *****

CITY           SKY/WX    TMP DP  RH WIND       PRES   REMARKS
SIOUX FALLS    CLOUDY     0  -7  72 NE6       30.58F WCI -12
BROOKINGS      CLOUDY    -6 -11  79 CALM      30.56F
WATERTOWN      CLOUDY    -5 -14  65 CALM      30.52F
HURON          CLOUDY     3  -7  63 SE9       30.58F WCI -12
SISSETON         N/A     -9 -14  78 CALM      30.61F
ABERDEEN       CLEAR      1  -7  68 SE6       30.58F WCI -10
MITCHELL       CLOUDY     6  -2  69 E10       30.57F WCI  -9
PIERRE         CLOUDY    11   6  81 SE18      30.42F WCI  -7
MOBRIDGE       FLURRIES   7   1  76 SE14      30.39F WCI -10
RAPID CITY     CLOUDY    27  24  89 SE14      30.12F WCI  16
$$

  *****  SOME WEATHER IN NEARBY STATES *****

CITY           SKY/WX    TMP DP  RH WIND       PRES   REMARKS
GLASGOW MT     CLOUDY    18  14  84 E18       30.03F WCI   2
GREAT FALLS MT PTCLDY    43  31  62 S15       29.88F
CHEYENNE WY    MOCLDY    32  27  81 SW5       30.11F
SCOTTSBLUFF NE CLOUDY    33  30  88 SE13      30.16F WCI  24
OMAHA NE       CLOUDY    10  -3  55 NE5       30.64S WCI   2
DES MOINES IA  CLOUDY     2  -5  72 NW7       30.65R WCI -11
DAVENPORT IA   CLOUDY     3  -5  69 NW7       30.60R WCI  -9
CHICAGO IL     CLEAR      4 -10  52 NW15      30.52R WCI -14
EAU CLAIRE WI  PTCLDY    -4 -18  51 NW6       30.59R WCI -16
LA CROSSE WI   PTCLDY    -3 -15  56 N5        30.62R WCI -13
$$

  *****  SOME NATIONAL WEATHER *****

CITY           SKY/WX    TMP DP  RH WIND       PRES   REMARKS
LA GUARDIA NY  PTCLDY    22  12  65 W15       29.87F WCI   9
RALEIGH NC     PTCLDY    34  16  47 VRB7      30.06R
ATLANTA GA     PTCLDY    34  21  59 NW16G28   30.22R WCI  24
NEW ORLEANS LA PTCLDY    53  38  56 NE7       30.30S
OKLAHOMA CITY  CLEAR     35  27  72 NE9       30.43S
ALBUQUERQUE NM CLEAR     42  20  41 CALM      30.31F
SALT LAKE CITY CLOUDY    28  27  96 W3        30.31F FOG
LOS ANGELES CA PTCLDY    57  54  89 CALM      30.08F
BOISE ID       CLOUDY    35  33  92 NW5       30.19R FOG
SEATTLE WA     RAIN      45  39  81 SW20G26   30.22R FOG
$$

*** WEATHER ACROSS MANITOBA...SASKATCHEWAN AND ONTARIO ***
                ***ONTARIO***

CITY           SKY/WX    TMP DP  RH WIND       PRES   REMARKS
GERALDTON      CRYSTALS -18 -26  69 W6        30.32R WCI -33
THUNDER BAY    CLEAR    -13 -20  70 W9        30.51R WCI -31
SIOUX LOOKOUT  CLEAR    -18 -24  76 NW6       30.47R WCI -33
TORONTO        PTCLDY    -8 -17  65 N21       30.16R WCI -32
BIG TROUT LK   FLURRIES -20 -27  69 W7        30.37F WCI -37
PICKLE LAKE    NOT AVBL
DRYDEN         CLEAR    -20 -26  76 W9        30.47F WCI -40
KENORA         CLEAR    -17 -22  76 NW6       30.52F WCI -31
$$
                *** MANITOBA***

CITY           SKY/WX    TMP DP  RH WIND       PRES   REMARKS
BRANDON        PTCLDY   -20 -26  76 E3        30.48F
DAUPHIN        CLEAR    -18 -26  69 W5        30.48F WCI -31
ISLAND LAKE    NOT AVBL
PILOT MOUND      N/A    -20 -26  76 S7          N/A  WCI -37
THE PAS        CLEAR    -18 -24  76 SE8       30.42F WCI -37
THOMPSON       PTCLDY   -29 -36  68 VRB2      30.45F
WINNIPEG       CLEAR    -15 -20  76 S6        30.61F WCI -29
LYNN LAKE      CLEAR    -22 -27  76 SE6       30.30F WCI -38
CHURCHILL      MOCLDY   -20 -26  76 W8        30.40F WCI -39
$$
                ***SASKATCHEWAN***

CITY           SKY/WX    TMP DP  RH WIND       PRES   REMARKS
ESTEVAN        NOT AVBL
KINDERSLEY     PTCLDY    18  14  86 SE18      29.84F WCI   2
LLOYDMINSTER   FLURRIES   9   5  85 SE16      29.88F WCI  -9
PRINCE ALBERT  MOCLDY    -9 -17  70 E10       30.17F WCI -28
REGINA         FLURRIES   9   1  72 SE24G32   30.16F WCI -12
YORKTON        CLOUDY    -8 -13  77 SE17      30.31F WCI -31
N. BATTLEFORD  CLOUDY    10   7  85 E20G26    29.98F WCC1F1C2F2C3F3C4F4C5F5C6F6C7F7C8F8C9F9CaFaCbFbCcFcCdFdCe!


USA.gov is the U.S. government's official web portal to all federal, state and local government web resources and services.